Date String (YYYY-MM-DD hh:mm:ss) UTC,Instrument flags,Ambient pressure (hPa),Sample flow (lpm),Bypass flow (lpm),Sample temperature (°C),Ambient temperature (°C),ASC tube jacket temperature (°C),LED temperature (°C),Box temperature (°C),Sample RH (%),Span deviation,Mass concentration (μg/m³),Mass concentration (μg/m³),Mass concentration (μg/m³)
DateTimeUTC,F1_M11,P_M11,Q1_M11,Q2_M11,T1_M11,T2_M11,T3_M11,T4_M11,T5_M11,U1_M11,ZSPAN_M11,X2_M11,X0_M11,X1_M11
2021-12-21 21:00:00,,0822.7,5.01,0.00,25.2,24.5,00.0,34.2,27.0,05.3,0000.0,0000.74,0002.32,0000.55
2021-12-21 21:01:00,,0822.7,4.99,0.00,25.3,24.5,00.0,34.2,27.0,05.3,0000.0,0000.72,0002.29,0000.55
2021-12-21 21:02:00,,0822.7,5.01,0.00,25.3,24.5,00.0,34.2,27.1,05.3,0000.0,0000.72,0002.29,0000.55
2021-12-21 21:03:00,,0822.8,5.00,0.00,25.3,24.5,00.0,34.3,27.1,05.2,0000.0,0000.74,0002.34,0000.55
2021-12-21 21:04:00,,0822.7,5.01,0.00,25.3,24.5,00.0,34.3,27.1,05.2,0000.0,0000.74,0002.29,0000.56
2021-12-21 21:05:00,,0822.6,4.99,0.00,25.3,24.5,00.0,34.3,27.1,05.2,0000.0,0000.72,0002.16,0000.56
2021-12-21 21:06:00,,0822.7,5.01,0.00,25.3,24.5,00.0,34.3,27.1,05.1,0000.0,0000.71,0002.16,0000.55
2021-12-21 21:07:00,,0822.7,5.01,0.00,25.3,24.5,00.0,34.3,27.1,05.2,0000.0,0000.72,0002.90,0000.55
2021-12-21 21:08:00,,0822.6,4.98,0.00,25.4,24.5,00.0,34.3,27.1,05.3,0000.0,0000.70,0003.33,0000.54
2021-12-21 21:09:00,,0822.7,5.01,0.00,25.3,24.6,00.0,34.3,27.1,05.4,0000.0,0000.68,0003.19,0000.54
2021-12-21 21:10:00,,0822.7,5.00,0.00,25.4,24.6,00.0,34.3,27.1,05.4,0000.0,0000.62,0002.24,0000.52
2021-12-21 21:11:00,,0822.6,4.99,0.00,25.4,24.5,00.0,34.3,27.1,05.3,0000.0,0000.62,0002.20,0000.51
2021-12-21 21:12:00,,0822.8,5.01,0.00,25.4,24.5,00.0,34.3,27.2,05.3,0000.0,0000.65,0002.36,0000.51
2021-12-21 21:13:00,,0822.6,4.99,0.00,25.4,24.6,00.0,34.3,27.2,05.2,0000.0,0000.67,0002.86,0000.52
2021-12-21 21:14:00,,0822.6,5.01,0.00,25.4,24.6,00.0,34.4,27.2,05.1,0000.0,0000.68,0002.97,0000.52
2021-12-21 21:15:00,,0822.6,5.01,0.00,25.4,24.6,00.0,34.4,27.2,05.2,0000.0,0000.68,0003.97,0000.51
2021-12-21 21:16:00,,0822.6,5.00,0.00,25.4,24.6,00.0,34.4,27.2,05.3,0000.0,0000.69,0004.41,0000.52
2021-12-21 21:17:00,,0822.7,5.00,0.00,25.4,24.6,00.0,34.4,27.2,05.3,0000.0,0000.70,0004.45,0000.53
2021-12-21 21:18:00,,0822.7,4.99,0.00,25.5,24.6,00.0,34.4,27.2,05.2,0000.0,0000.71,0003.80,0000.53
2021-12-21 21:19:00,,0822.7,5.01,0.00,25.5,24.6,00.0,34.4,27.3,05.3,0000.0,0000.69,0003.91,0000.52
2021-12-21 21:20:00,,0822.7,5.01,0.00,25.5,24.6,00.0,34.4,27.3,05.2,0000.0,0000.71,0004.13,0000.53
2021-12-21 21:21:00,,0822.7,5.00,0.00,25.5,24.6,00.0,34.4,27.3,05.3,0000.0,0000.74,0004.17,0000.55
2021-12-21 21:22:00,,0822.8,5.01,0.00,25.5,24.6,00.0,34.4,27.3,05.2,0000.0,0000.75,0004.13,0000.56
2021-12-21 21:23:00,,0822.8,5.00,0.00,25.5,24.6,00.0,34.4,27.3,05.1,0000.0,0000.74,0004.03,0000.55
2021-12-21 21:24:00,,0822.8,5.00,0.00,25.5,24.6,00.0,34.4,27.3,05.1,0000.0,0000.72,0003.58,0000.55
2021-12-21 21:25:00,,0822.9,4.99,0.00,25.6,24.7,00.0,34.4,27.3,05.1,0000.0,0000.72,0003.46,0000.55
2021-12-21 21:26:00,,0822.8,5.00,0.00,25.6,24.7,00.0,34.5,27.3,05.1,0000.0,0000.74,0002.54,0000.56
2021-12-21 21:27:00,,0822.8,5.01,0.00,25.6,24.7,00.0,34.5,27.4,05.1,0000.0,0000.76,0002.15,0000.56
2021-12-21 21:28:00,,0822.8,4.98,0.00,25.6,24.8,00.0,34.5,27.4,05.1,0000.0,0000.76,0002.13,0000.56
2021-12-21 21:29:00,,0822.8,5.01,0.00,25.6,24.8,00.0,34.5,27.4,05.1,0000.0,0000.76,0002.06,0000.57
2021-12-21 21:30:00,,0822.8,5.00,0.00,25.6,24.8,00.0,34.5,27.4,05.1,0000.0,0000.79,0001.37,0000.58
2021-12-21 21:31:00,,0822.8,4.99,0.00,25.7,24.8,00.0,34.5,27.5,05.1,0000.0,0000.78,0001.20,0000.59
2021-12-21 21:32:00,,0822.8,5.00,0.00,25.7,24.8,00.0,34.5,27.5,05.1,0000.0,0000.77,0001.17,0000.59
2021-12-21 21:33:00,,0822.9,5.01,0.00,25.7,24.9,00.0,34.5,27.5,05.1,0000.0,0000.76,0001.14,0000.59
2021-12-21 21:34:00,,0822.7,4.99,0.00,25.7,24.9,00.0,34.6,27.5,05.1,0000.0,0000.75,0001.10,0000.59
2021-12-21 21:35:00,,0822.7,5.02,0.00,25.7,25.0,00.0,34.6,27.5,05.0,0000.0,0000.76,0001.18,0000.60
2021-12-21 21:36:00,,0822.8,4.99,0.00,25.7,25.0,00.0,34.6,27.5,05.0,0000.0,0000.78,0001.45,0000.62
2021-12-21 21:37:00,,0822.8,5.01,0.00,25.7,25.0,00.0,34.6,27.5,05.0,0000.0,0000.81,0001.65,0000.63
2021-12-21 21:38:00,,0822.7,5.00,0.00,25.7,25.0,00.0,34.6,27.5,05.1,0000.0,0000.81,0001.71,0000.63
2021-12-21 21:39:00,,0822.8,5.01,0.00,25.7,25.0,00.0,34.6,27.5,05.1,0000.0,0000.84,0001.93,0000.63
2021-12-21 21:40:00,,0822.9,5.00,0.00,25.8,25.0,00.0,34.6,27.6,05.1,0000.0,0000.89,0002.22,0000.64
2021-12-21 21:41:00,,0822.9,5.00,0.00,25.8,24.9,00.0,34.6,27.6,05.1,0000.0,0000.87,0002.18,0000.65
2021-12-21 21:42:00,,0822.8,5.00,0.00,25.8,25.0,00.0,34.6,27.6,05.0,0000.0,0000.91,0002.28,0000.66
2021-12-21 21:43:00,,0822.8,5.01,0.00,25.8,25.0,00.0,34.7,27.6,04.9,0000.0,0000.94,0002.36,0000.67
2021-12-21 21:44:00,,0822.9,5.00,0.00,25.8,25.0,00.0,34.7,27.6,04.8,0000.0,0000.97,0002.43,0000.68
2021-12-21 21:45:00,,0822.9,4.99,0.00,25.8,25.0,00.0,34.7,27.6,04.8,0000.0,0000.99,0002.47,0000.68
2021-12-21 21:46:00,,0822.8,5.02,0.00,25.8,25.0,00.0,34.7,27.6,04.8,0000.0,0001.03,0002.50,0000.68
2021-12-21 21:47:00,,0822.8,4.98,0.00,25.8,25.0,00.0,34.7,27.6,04.8,0000.0,0001.02,0002.69,0000.69
2021-12-21 21:48:00,,0822.8,5.02,0.00,25.8,25.0,00.0,34.7,27.6,04.8,0000.0,0001.03,0002.64,0000.69
2021-12-21 21:49:00,,0822.8,4.98,0.00,25.8,25.1,00.0,34.7,27.6,04.8,0000.0,0001.04,0002.58,0000.71
2021-12-21 21:50:00,,0822.8,5.01,0.00,25.8,25.1,00.0,34.7,27.6,04.9,0000.0,0001.02,0002.35,0000.71
2021-12-21 21:51:00,,0822.7,4.99,0.00,25.8,25.0,00.0,34.7,27.6,04.8,0000.0,0000.99,0002.07,0000.71
2021-12-21 21:52:00,,0822.8,5.00,0.00,25.8,25.0,00.0,34.8,27.6,04.8,0000.0,0001.02,0002.14,0000.72
2021-12-21 21:53:00,,0822.7,5.02,0.00,25.8,25.0,00.0,34.8,27.6,04.8,0000.0,0001.01,0002.09,0000.72
2021-12-21 21:54:00,,0822.7,4.98,0.00,25.8,25.0,00.0,34.8,27.6,04.9,0000.0,0001.04,0002.30,0000.71
2021-12-21 21:55:00,,0822.8,5.02,0.00,25.8,25.0,00.0,34.8,27.5,04.9,0000.0,0001.04,0003.52,0000.71
2021-12-21 21:56:00,,0822.8,4.98,0.00,25.8,25.0,00.0,34.8,27.5,04.8,0000.0,0001.06,0004.42,0000.72
2021-12-21 21:57:00,,0822.9,5.00,0.00,25.8,25.0,00.0,34.8,27.5,04.8,0000.0,0001.07,0005.60,0000.72
2021-12-21 21:58:00,,0822.8,4.99,0.00,25.8,25.0,00.0,34.8,27.5,04.7,0000.0,0001.07,0005.16,0000.71
2021-12-21 21:59:00,,0822.9,4.99,0.00,25.8,25.0,00.0,34.8,27.5,04.8,0000.0,0001.04,0005.05,0000.70
